Time,TemperatureF,DewpointF,PressureIn,WindDirection,WindDirectionDegrees,WindSpeedMPH,WindSpeedGustMPH,Humidity,HourlyPrecipIn,Conditions,Clouds,dailyrainin,SoftwareType,DateUTC
2013-03-17 00:00:00,33.6,26.5,30.19,West,268,3.0,4.0,75,0.00,,---,0.00,VWS V14.01,2013-03-17 05:00:00,
2013-03-17 00:05:00,33.6,26.5,30.19,NNE,20,6.0,6.0,75,0.00,,---,0.00,VWS V14.01,2013-03-17 05:05:00,
2013-03-17 00:10:00,33.4,26.3,30.19,WNW,297,1.0,10.0,75,0.00,,---,0.00,VWS V14.01,2013-03-17 05:10:00,
2013-03-17 00:15:00,33.3,26.2,30.19,NE,50,8.0,10.0,75,0.00,,---,0.00,VWS V14.01,2013-03-17 05:15:00,
2013-03-17 00:20:00,33.2,26.5,30.20,North,11,0.0,7.0,76,0.00,,---,0.00,VWS V14.01,2013-03-17 05:20:00,
2013-03-17 00:25:00,33.1,26.4,30.19,NNE,22,0.0,7.0,76,0.00,,---,0.00,VWS V14.01,2013-03-17 05:25:00,
2013-03-17 00:30:00,33.0,26.3,30.19,North,360,2.0,9.0,76,0.00,,---,0.00,VWS V14.01,2013-03-17 05:30:00,
2013-03-17 00:35:00,33.0,26.3,30.19,ENE,68,2.0,9.0,76,0.00,,---,0.00,VWS V14.01,2013-03-17 05:35:00,
2013-03-17 00:40:00,33.0,26.3,30.19,NNE,30,4.0,6.0,76,0.00,,---,0.00,VWS V14.01,2013-03-17 05:40:00,
2013-03-17 00:45:00,32.9,26.2,30.19,NNW,340,1.0,8.0,76,0.00,,---,0.00,VWS V14.01,2013-03-17 05:45:00,
2013-03-17 00:50:00,32.8,25.8,30.18,NE,46,4.0,6.0,75,0.00,,---,0.00,VWS V14.01,2013-03-17 05:50:00,
2013-03-17 00:55:00,32.7,26.0,30.18,ENE,78,2.0,7.0,76,0.00,,---,0.00,VWS V14.01,2013-03-17 05:55:00,
2013-03-17 01:00:00,32.7,26.0,30.18,ENE,59,3.0,5.0,76,0.00,,---,0.00,VWS V14.01,2013-03-17 06:00:00,
2013-03-17 01:05:00,32.6,25.9,30.18,NNE,26,5.0,9.0,76,0.00,,---,0.00,VWS V14.01,2013-03-17 06:05:00,
2013-03-17 01:10:00,32.6,25.9,30.18,NE,42,1.0,7.0,76,0.00,,---,0.00,VWS V14.01,2013-03-17 06:10:00,
2013-03-17 01:15:00,32.5,25.8,30.17,ENE,73,1.0,7.0,76,0.00,,---,0.00,VWS V14.01,2013-03-17 06:15:00,
2013-03-17 01:20:00,32.5,25.8,30.17,ENE,66,4.0,7.0,76,0.00,,---,0.00,VWS V14.01,2013-03-17 06:20:00,
2013-03-17 01:26:00,32.4,25.7,30.17,ENE,64,1.0,8.0,76,0.00,,---,0.00,VWS V14.01,2013-03-17 06:26:00,
2013-03-17 01:30:00,32.4,25.7,30.17,NE,38,0.0,8.0,76,0.00,,---,0.00,VWS V14.01,2013-03-17 06:30:00,
2013-03-17 01:31:00,32.4,25.7,30.17,NE,45,2.0,9.0,76,0.00,,---,0.00,VWS V14.01,2013-03-17 06:31:00,
2013-03-17 01:36:00,32.3,25.6,30.17,ENE,67,1.0,11.0,76,0.00,,---,0.00,VWS V14.01,2013-03-17 06:36:00,
2013-03-17 01:40:00,32.3,25.6,30.17,NE,38,0.0,11.0,76,0.00,,---,0.00,VWS V14.01,2013-03-17 06:40:00,
2013-03-17 01:41:00,32.2,25.5,30.17,NNE,22,2.0,7.0,76,0.00,,---,0.00,VWS V14.01,2013-03-17 06:41:00,
2013-03-17 01:46:00,32.1,25.4,30.17,NNE,32,4.0,7.0,76,0.00,,---,0.00,VWS V14.01,2013-03-17 06:46:00,
2013-03-17 01:50:00,32.1,25.4,30.17,SW,220,1.0,7.0,76,0.00,,---,0.00,VWS V14.01,2013-03-17 06:50:00,
2013-03-17 01:51:00,32.1,25.4,30.17,NNE,22,0.0,8.0,76,0.00,,---,0.00,VWS V14.01,2013-03-17 06:51:00,
2013-03-17 01:56:00,32.0,25.3,30.16,East,101,1.0,8.0,76,0.00,,---,0.00,VWS V14.01,2013-03-17 06:56:00,
2013-03-17 02:00:00,32.1,25.4,30.16,West,274,0.0,8.0,76,0.00,,---,0.00,VWS V14.01,2013-03-17 07:00:00,
2013-03-17 02:01:00,32.0,25.3,30.16,NNE,19,2.0,5.0,76,0.00,,---,0.00,VWS V14.01,2013-03-17 07:01:00,
2013-03-17 02:06:00,32.0,25.3,30.17,ESE,116,1.0,7.0,76,0.00,,---,0.00,VWS V14.01,2013-03-17 07:06:00,
2013-03-17 02:10:00,31.9,25.2,30.17,ENE,57,1.0,7.0,76,0.00,,---,0.00,VWS V14.01,2013-03-17 07:10:00,
2013-03-17 02:11:00,31.9,25.2,30.17,ESE,123,0.0,7.0,76,0.00,,---,0.00,VWS V14.01,2013-03-17 07:11:00,
2013-03-17 02:16:00,31.8,25.4,30.17,NNE,13,7.0,7.0,77,0.00,,---,0.00,VWS V14.01,2013-03-17 07:16:00,
2013-03-17 02:20:00,31.8,25.1,30.17,ENE,57,1.0,7.0,76,0.00,,---,0.00,VWS V14.01,2013-03-17 07:20:00,
2013-03-17 02:21:00,31.8,25.4,30.17,ENE,72,0.0,2.0,77,0.00,,---,0.00,VWS V14.01,2013-03-17 07:21:00,
2013-03-17 02:26:00,31.7,25.3,30.17,East,100,0.0,6.0,77,0.00,,---,0.00,VWS V14.01,2013-03-17 07:26:00,
2013-03-17 02:30:00,31.7,25.3,30.17,East,100,0.0,6.0,77,0.00,,---,0.00,VWS V14.01,2013-03-17 07:30:00,
2013-03-17 02:32:00,31.7,25.3,30.17,NW,306,1.0,4.0,77,0.00,,---,0.00,VWS V14.01,2013-03-17 07:32:00,
2013-03-17 02:37:00,31.7,25.3,30.18,NNE,29,2.0,7.0,77,0.00,,---,0.00,VWS V14.01,2013-03-17 07:37:00,
2013-03-17 02:40:00,31.7,25.3,30.17,NE,44,0.0,7.0,77,0.00,,---,0.00,VWS V14.01,2013-03-17 07:40:00,
2013-03-17 02:41:00,31.7,25.3,30.18,East,101,2.0,5.0,77,0.00,,---,0.00,VWS V14.01,2013-03-17 07:41:00,
2013-03-17 02:47:00,31.7,25.3,30.18,NE,50,3.0,6.0,77,0.00,,---,0.00,VWS V14.01,2013-03-17 07:47:00,
2013-03-17 02:50:00,31.7,25.3,30.18,NE,38,1.0,6.0,77,0.00,,---,0.00,VWS V14.01,2013-03-17 07:50:00,
2013-03-17 02:52:00,31.7,25.3,30.18,NE,36,0.0,5.0,77,0.00,,---,0.00,VWS V14.01,2013-03-17 07:52:00,
2013-03-17 02:57:00,31.7,25.3,30.17,ENE,64,0.0,5.0,77,0.00,,---,0.00,VWS V14.01,2013-03-17 07:57:00,
2013-03-17 03:00:00,31.7,25.3,30.18,East,88,2.0,5.0,77,0.00,,---,0.00,VWS V14.01,2013-03-17 08:00:00,
2013-03-17 03:02:00,31.7,25.0,30.17,North,11,3.0,5.0,76,0.00,,---,0.00,VWS V14.01,2013-03-17 08:02:00,
2013-03-17 03:07:00,31.6,24.6,30.17,SE,127,0.0,8.0,75,0.00,,---,0.00,VWS V14.01,2013-03-17 08:07:00,
2013-03-17 03:10:00,31.6,24.6,30.17,North,355,1.0,8.0,75,0.00,,---,0.00,VWS V14.01,2013-03-17 08:10:00,
2013-03-17 03:12:00,31.6,24.6,30.17,NE,35,1.0,5.0,75,0.00,,---,0.00,VWS V14.01,2013-03-17 08:12:00,
2013-03-17 03:17:00,31.5,24.5,30.17,ENE,65,2.0,7.0,75,0.00,,---,0.00,VWS V14.01,2013-03-17 08:17:00,
2013-03-17 03:20:00,31.5,24.5,30.17,ENE,71,0.0,7.0,75,0.00,,---,0.00,VWS V14.01,2013-03-17 08:20:00,
2013-03-17 03:22:00,31.5,24.5,30.17,East,94,2.0,4.0,75,0.00,,---,0.00,VWS V14.01,2013-03-17 08:22:00,
2013-03-17 03:27:00,31.5,24.8,30.17,ENE,76,0.0,4.0,76,0.00,,---,0.00,VWS V14.01,2013-03-17 08:27:00,
2013-03-17 03:30:00,31.5,24.8,30.17,SE,142,0.0,4.0,76,0.00,,---,0.00,VWS V14.01,2013-03-17 08:30:00,
2013-03-17 03:32:00,31.5,24.5,30.17,SE,132,6.0,6.0,75,0.00,,---,0.00,VWS V14.01,2013-03-17 08:32:00,
2013-03-17 03:37:00,31.4,24.4,30.17,East,91,2.0,10.0,75,0.00,,---,0.00,VWS V14.01,2013-03-17 08:37:00,
2013-03-17 03:40:00,31.4,24.7,30.17,ENE,68,2.0,10.0,76,0.00,,---,0.00,VWS V14.01,2013-03-17 08:40:00,
2013-03-17 03:42:00,31.3,24.6,30.17,ESE,108,0.0,5.0,76,0.00,,---,0.00,VWS V14.01,2013-03-17 08:42:00,
2013-03-17 03:47:00,31.3,24.6,30.17,NE,46,0.0,5.0,76,0.00,,---,0.00,VWS V14.01,2013-03-17 08:47:00,
2013-03-17 03:50:00,31.3,24.6,30.17,NE,46,2.0,5.0,76,0.00,,---,0.00,VWS V14.01,2013-03-17 08:50:00,
2013-03-17 03:52:00,31.4,24.7,30.17,ESE,115,2.0,4.0,76,0.00,,---,0.00,VWS V14.01,2013-03-17 08:52:00,
2013-03-17 03:57:00,31.4,24.7,30.16,NE,49,1.0,5.0,76,0.00,,---,0.00,VWS V14.01,2013-03-17 08:57:00,
2013-03-17 04:00:00,31.4,24.7,30.16,East,81,1.0,5.0,76,0.00,,---,0.00,VWS V14.01,2013-03-17 09:00:00,
2013-03-17 04:02:00,31.4,25.0,30.16,ENE,67,4.0,4.0,77,0.00,,---,0.00,VWS V14.01,2013-03-17 09:02:00,
2013-03-17 04:07:00,31.4,25.0,30.16,ENE,67,2.0,5.0,77,0.00,,---,0.00,VWS V14.01,2013-03-17 09:07:00,
2013-03-17 04:10:00,31.4,24.7,30.16,NNE,19,2.0,6.0,76,0.00,,---,0.00,VWS V14.01,2013-03-17 09:10:00,
2013-03-17 04:13:00,31.4,24.7,30.16,ESE,114,1.0,3.0,76,0.00,,---,0.00,VWS V14.01,2013-03-17 09:13:00,
2013-03-17 04:18:00,31.4,24.7,30.15,ENE,65,4.0,8.0,76,0.00,,---,0.00,VWS V14.01,2013-03-17 09:18:00,
2013-03-17 04:20:00,31.4,24.7,30.16,East,92,2.0,8.0,76,0.00,,---,0.00,VWS V14.01,2013-03-17 09:20:00,
2013-03-17 04:23:00,31.2,24.5,30.16,East,99,0.0,9.0,76,0.00,,---,0.00,VWS V14.01,2013-03-17 09:23:00,
2013-03-17 04:28:00,31.2,24.5,30.16,ENE,78,1.0,9.0,76,0.00,,---,0.00,VWS V14.01,2013-03-17 09:28:00,
2013-03-17 04:30:00,31.1,24.4,30.16,SSE,157,0.0,9.0,76,0.00,,---,0.00,VWS V14.01,2013-03-17 09:30:00,
2013-03-17 04:33:00,31.2,24.5,30.15,SSE,156,4.0,5.0,76,0.00,,---,0.00,VWS V14.01,2013-03-17 09:33:00,
2013-03-17 04:38:00,31.1,24.4,30.15,ENE,78,1.0,7.0,76,0.00,,---,0.00,VWS V14.01,2013-03-17 09:38:00,
2013-03-17 04:40:00,31.1,24.4,30.15,ENE,78,1.0,7.0,76,0.00,,---,0.00,VWS V14.01,2013-03-17 09:40:00,
2013-03-17 04:43:00,31.0,24.3,30.15,ENE,68,2.0,7.0,76,0.00,,---,0.00,VWS V14.01,2013-03-17 09:43:00,
2013-03-17 04:48:00,30.9,24.5,30.15,NE,39,2.0,7.0,77,0.00,,---,0.00,VWS V14.01,2013-03-17 09:48:00,
2013-03-17 04:50:00,30.9,24.5,30.15,ESE,119,0.0,7.0,77,0.00,,---,0.00,VWS V14.01,2013-03-17 09:50:00,
2013-03-17 04:53:00,30.8,24.5,30.14,SE,130,0.0,5.0,77,0.00,,---,0.00,VWS V14.01,2013-03-17 09:53:00,
2013-03-17 04:58:00,30.8,24.5,30.15,NE,49,2.0,5.0,77,0.00,,---,0.00,VWS V14.01,2013-03-17 09:58:00,
2013-03-17 05:00:00,30.8,24.5,30.14,East,98,1.0,5.0,77,0.00,,---,0.00,VWS V14.01,2013-03-17 10:00:00,
2013-03-17 05:03:00,30.8,24.5,30.14,SSE,151,1.0,6.0,77,0.00,,---,0.00,VWS V14.01,2013-03-17 10:03:00,
2013-03-17 05:08:00,30.7,24.4,30.15,South,171,0.0,6.0,77,0.00,,---,0.00,VWS V14.01,2013-03-17 10:08:00,
2013-03-17 05:10:00,30.7,24.4,30.15,South,171,0.0,6.0,77,0.00,,---,0.00,VWS V14.01,2013-03-17 10:10:00,
2013-03-17 05:13:00,30.7,24.4,30.15,East,79,1.0,6.0,77,0.00,,---,0.00,VWS V14.01,2013-03-17 10:13:00,
2013-03-17 05:18:00,30.7,24.4,30.14,ENE,72,2.0,6.0,77,0.00,,---,0.00,VWS V14.01,2013-03-17 10:18:00,
2013-03-17 05:20:00,30.7,24.4,30.14,NE,41,2.0,6.0,77,0.00,,---,0.00,VWS V14.01,2013-03-17 10:20:00,
2013-03-17 05:23:00,30.6,24.3,30.15,ESE,119,0.0,5.0,77,0.00,,---,0.00,VWS V14.01,2013-03-17 10:23:00,
2013-03-17 05:28:00,30.6,24.3,30.15,East,92,1.0,7.0,77,0.00,,---,0.00,VWS V14.01,2013-03-17 10:28:00,
2013-03-17 05:30:00,30.6,24.3,30.14,East,92,1.0,7.0,77,0.00,,---,0.00,VWS V14.01,2013-03-17 10:30:00,
2013-03-17 05:33:00,30.5,24.2,30.15,NE,51,1.0,5.0,77,0.00,,---,0.00,VWS V14.01,2013-03-17 10:33:00,
2013-03-17 05:38:00,30.5,24.2,30.15,East,84,1.0,5.0,77,0.00,,---,0.00,VWS V14.01,2013-03-17 10:38:00,
2013-03-17 05:40:00,30.5,24.2,30.15,East,84,0.0,5.0,77,0.00,,---,0.00,VWS V14.01,2013-03-17 10:40:00,
2013-03-17 05:43:00,30.5,24.2,30.15,SSE,165,2.0,9.0,77,0.00,,---,0.00,VWS V14.01,2013-03-17 10:43:00,
2013-03-17 05:48:00,30.5,24.2,30.15,ENE,61,3.0,9.0,77,0.00,,---,0.00,VWS V14.01,2013-03-17 10:48:00,
2013-03-17 05:50:00,30.5,24.2,30.15,ENE,61,1.0,9.0,77,0.00,,---,0.00,VWS V14.01,2013-03-17 10:50:00,
2013-03-17 05:53:00,30.4,24.1,30.15,SSE,159,0.0,7.0,77,0.00,,---,0.00,VWS V14.01,2013-03-17 10:53:00,
2013-03-17 05:58:00,30.4,24.1,30.15,SE,141,0.0,7.0,77,0.00,,---,0.00,VWS V14.01,2013-03-17 10:58:00,
2013-03-17 06:00:00,30.3,24.0,30.15,SE,141,0.0,7.0,77,0.00,,---,0.00,VWS V14.01,2013-03-17 11:00:00,
2013-03-17 06:03:00,30.3,24.0,30.15,NE,46,1.0,6.0,77,0.00,,---,0.00,VWS V14.01,2013-03-17 11:03:00,
2013-03-17 06:08:00,30.3,24.0,30.15,NE,40,0.0,6.0,77,0.00,,---,0.00,VWS V14.01,2013-03-17 11:08:00,
2013-03-17 06:10:00,30.3,24.0,30.15,NE,40,0.0,6.0,77,0.00,,---,0.00,VWS V14.01,2013-03-17 11:10:00,
2013-03-17 06:13:00,30.3,24.0,30.15,ESE,120,4.0,4.0,77,0.00,,---,0.00,VWS V14.01,2013-03-17 11:13:00,
2013-03-17 06:18:00,30.3,24.0,30.15,East,83,6.0,6.0,77,0.00,,---,0.00,VWS V14.01,2013-03-17 11:18:00,
2013-03-17 06:20:00,30.3,24.0,30.15,ENE,73,5.0,6.0,77,0.00,,---,0.00,VWS V14.01,2013-03-17 11:20:00,
2013-03-17 06:23:00,30.2,24.2,30.15,South,173,1.0,5.0,78,0.00,,---,0.00,VWS V14.01,2013-03-17 11:23:00,
2013-03-17 06:28:00,30.1,24.1,30.15,ESE,116,1.0,7.0,78,0.00,,---,0.00,VWS V14.01,2013-03-17 11:28:00,
2013-03-17 06:30:00,30.2,24.2,30.15,ESE,116,0.0,7.0,78,0.00,,---,0.00,VWS V14.01,2013-03-17 11:30:00,
2013-03-17 06:33:00,30.1,24.1,30.15,East,94,1.0,4.0,78,0.00,,---,0.00,VWS V14.01,2013-03-17 11:33:00,
2013-03-17 06:38:00,30.1,24.1,30.15,South,171,1.0,5.0,78,0.00,,---,0.00,VWS V14.01,2013-03-17 11:38:00,
2013-03-17 06:40:00,30.1,24.1,30.15,South,171,0.0,5.0,78,0.00,,---,0.00,VWS V14.01,2013-03-17 11:40:00,
2013-03-17 06:43:00,30.0,24.0,30.15,East,91,2.0,5.0,78,0.00,,---,0.00,VWS V14.01,2013-03-17 11:43:00,
2013-03-17 06:48:00,29.9,23.9,30.15,East,93,2.0,6.0,78,0.00,,---,0.00,VWS V14.01,2013-03-17 11:48:00,
2013-03-17 06:50:00,29.9,23.9,30.15,East,93,2.0,6.0,78,0.00,,---,0.00,VWS V14.01,2013-03-17 11:50:00,
2013-03-17 06:53:00,29.9,23.9,30.15,NE,42,0.0,7.0,78,0.00,,---,0.00,VWS V14.01,2013-03-17 11:53:00,
2013-03-17 06:58:00,29.8,23.8,30.15,SE,145,1.0,7.0,78,0.00,,---,0.00,VWS V14.01,2013-03-17 11:58:00,
2013-03-17 07:00:00,29.8,23.8,30.14,SE,145,1.0,7.0,78,0.00,,---,0.00,VWS V14.01,2013-03-17 12:00:00,
2013-03-17 07:03:00,29.7,23.7,30.15,East,101,0.0,5.0,78,0.00,,---,0.00,VWS V14.01,2013-03-17 12:03:00,
2013-03-17 07:08:00,29.6,23.6,30.15,NE,34,0.0,6.0,78,0.00,,---,0.00,VWS V14.01,2013-03-17 12:08:00,
2013-03-17 07:10:00,29.6,23.6,30.15,NE,34,0.0,6.0,78,0.00,,---,0.00,VWS V14.01,2013-03-17 12:10:00,
2013-03-17 07:13:00,29.5,23.8,30.16,NE,40,0.0,6.0,79,0.00,,---,0.00,VWS V14.01,2013-03-17 12:13:00,
2013-03-17 07:18:00,29.5,23.8,30.16,East,100,0.0,8.0,79,0.00,,---,0.00,VWS V14.01,2013-03-17 12:18:00,
2013-03-17 07:20:00,29.5,23.8,30.16,East,100,0.0,8.0,79,0.00,,---,0.00,VWS V14.01,2013-03-17 12:20:00,
2013-03-17 07:23:00,29.5,23.8,30.16,SE,140,1.0,4.0,79,0.00,,---,0.00,VWS V14.01,2013-03-17 12:23:00,
2013-03-17 07:28:00,29.6,23.9,30.15,South,188,0.0,0.0,79,0.00,,---,0.00,VWS V14.01,2013-03-17 12:28:00,
2013-03-17 07:30:00,29.6,23.9,30.15,South,188,0.0,5.0,79,0.00,,---,0.00,VWS V14.01,2013-03-17 12:30:00,
2013-03-17 07:33:00,29.6,23.9,30.15,SE,135,1.0,6.0,79,0.00,,---,0.00,VWS V14.01,2013-03-17 12:33:00,
2013-03-17 07:38:00,29.6,23.9,30.16,East,86,1.0,2.0,79,0.00,,---,0.00,VWS V14.01,2013-03-17 12:38:00,
2013-03-17 07:40:00,29.6,23.9,30.16,East,86,1.0,6.0,79,0.00,,---,0.00,VWS V14.01,2013-03-17 12:40:00,
2013-03-17 07:43:00,29.6,23.9,30.16,NNE,32,1.0,6.0,79,0.00,,---,0.00,VWS V14.01,2013-03-17 12:43:00,
2013-03-17 07:48:00,29.6,23.9,30.16,NE,51,3.0,6.0,79,0.00,,---,0.00,VWS V14.01,2013-03-17 12:48:00,
2013-03-17 07:50:00,29.6,23.9,30.16,NE,46,6.0,8.0,79,0.00,,---,0.00,VWS V14.01,2013-03-17 12:50:00,
2013-03-17 07:53:00,29.6,23.9,30.15,NE,50,2.0,8.0,79,0.00,,---,0.00,VWS V14.01,2013-03-17 12:53:00,
2013-03-17 07:58:00,29.7,24.0,30.15,East,94,5.0,5.0,79,0.00,,---,0.00,VWS V14.01,2013-03-17 12:58:00,
2013-03-17 08:00:00,29.7,24.0,30.15,ENE,76,3.0,8.0,79,0.00,,---,0.00,VWS V14.01,2013-03-17 13:00:00,
2013-03-17 08:03:00,29.7,23.7,30.15,ENE,61,5.0,8.0,78,0.00,,---,0.00,VWS V14.01,2013-03-17 13:03:00,
2013-03-17 08:09:00,29.8,23.8,30.16,ENE,69,2.0,3.0,78,0.00,,---,0.00,VWS V14.01,2013-03-17 13:09:00,
2013-03-17 08:10:00,29.8,23.8,30.16,ESE,119,0.0,8.0,78,0.00,,---,0.00,VWS V14.01,2013-03-17 13:10:00,
2013-03-17 08:14:00,29.8,23.8,30.17,East,96,1.0,4.0,78,0.00,,---,0.00,VWS V14.01,2013-03-17 13:14:00,
2013-03-17 08:18:00,29.9,23.9,30.16,East,84,3.0,3.0,78,0.00,,---,0.00,VWS V14.01,2013-03-17 13:18:00,
2013-03-17 08:20:00,29.9,23.9,30.16,SSE,154,1.0,4.0,78,0.00,,---,0.00,VWS V14.01,2013-03-17 13:20:00,
2013-03-17 08:24:00,30.0,24.0,30.16,ESE,110,1.0,8.0,78,0.00,,---,0.00,VWS V14.01,2013-03-17 13:24:00,
2013-03-17 08:29:00,30.0,23.7,30.16,NE,38,2.0,4.0,77,0.00,,---,0.00,VWS V14.01,2013-03-17 13:29:00,
2013-03-17 08:30:00,30.0,23.7,30.16,ESE,106,2.0,8.0,77,0.00,,---,0.00,VWS V14.01,2013-03-17 13:30:00,
2013-03-17 08:33:00,30.0,23.7,30.16,ESE,103,2.0,5.0,77,0.00,,---,0.00,VWS V14.01,2013-03-17 13:33:00,
2013-03-17 08:38:00,30.1,24.1,30.16,NNE,17,2.0,4.0,78,0.00,,---,0.00,VWS V14.01,2013-03-17 13:38:00,
2013-03-17 08:40:00,30.1,24.1,30.16,ESE,110,2.0,5.0,78,0.00,,---,0.00,VWS V14.01,2013-03-17 13:40:00,
2013-03-17 08:44:00,30.1,23.8,30.16,East,88,3.0,12.0,77,0.00,,---,0.00,VWS V14.01,2013-03-17 13:44:00,
2013-03-17 08:49:00,30.3,24.0,30.16,ESE,103,0.0,0.0,77,0.00,,---,0.00,VWS V14.01,2013-03-17 13:49:00,
2013-03-17 08:50:00,30.3,24.0,30.16,ESE,103,0.0,12.0,77,0.00,,---,0.00,VWS V14.01,2013-03-17 13:50:00,
2013-03-17 08:54:00,30.5,23.9,30.16,South,175,4.0,8.0,76,0.00,,---,0.00,VWS V14.01,2013-03-17 13:54:00,
2013-03-17 08:59:00,30.6,24.0,30.16,SSE,167,1.0,2.0,76,0.00,,---,0.00,VWS V14.01,2013-03-17 13:59:00,
2013-03-17 09:00:00,30.7,24.0,30.16,SSE,155,2.0,8.0,76,0.00,,---,0.00,VWS V14.01,2013-03-17 14:00:00,
2013-03-17 09:04:00,30.7,24.0,30.15,East,85,3.0,5.0,76,0.00,,---,0.00,VWS V14.01,2013-03-17 14:04:00,
2013-03-17 09:09:00,30.6,24.0,30.15,ESE,122,1.0,1.0,76,0.00,,---,0.00,VWS V14.01,2013-03-17 14:09:00,
2013-03-17 09:10:00,30.6,24.0,30.15,East,90,1.0,6.0,76,0.00,,---,0.00,VWS V14.01,2013-03-17 14:10:00,
2013-03-17 09:14:00,30.6,24.0,30.15,ESE,119,1.0,6.0,76,0.00,,---,0.00,VWS V14.01,2013-03-17 14:14:00,
2013-03-17 09:19:00,30.6,24.0,30.15,NE,40,0.0,3.0,76,0.00,,---,0.00,VWS V14.01,2013-03-17 14:19:00,
2013-03-17 09:20:00,30.6,24.0,30.15,NE,40,3.0,7.0,76,0.00,,---,0.00,VWS V14.01,2013-03-17 14:20:00,
2013-03-17 09:24:00,30.7,24.4,30.15,East,80,3.0,6.0,77,0.00,,---,0.00,VWS V14.01,2013-03-17 14:24:00,
2013-03-17 09:29:00,30.7,24.4,30.15,East,84,1.0,4.0,77,0.00,,---,0.00,VWS V14.01,2013-03-17 14:29:00,
2013-03-17 09:30:00,30.8,24.5,30.15,East,84,1.0,8.0,77,0.00,,---,0.00,VWS V14.01,2013-03-17 14:30:00,
2013-03-17 09:34:00,30.8,24.5,30.15,ENE,67,4.0,7.0,77,0.00,,---,0.00,VWS V14.01,2013-03-17 14:34:00,
2013-03-17 09:39:00,30.8,24.1,30.15,ESE,103,0.0,2.0,76,0.00,,---,0.00,VWS V14.01,2013-03-17 14:39:00,
2013-03-17 09:40:00,30.8,24.1,30.15,East,80,2.0,8.0,76,0.00,,---,0.00,VWS V14.01,2013-03-17 14:40:00,
2013-03-17 09:44:00,30.9,24.5,30.15,SSE,157,4.0,7.0,77,0.00,,---,0.00,VWS V14.01,2013-03-17 14:44:00,
2013-03-17 09:49:00,31.1,24.4,30.16,SE,138,2.0,4.0,76,0.00,,---,0.00,VWS V14.01,2013-03-17 14:49:00,
2013-03-17 09:50:00,31.1,24.4,30.15,SSE,165,1.0,7.0,76,0.00,,---,0.00,VWS V14.01,2013-03-17 14:50:00,
2013-03-17 09:54:00,31.2,24.5,30.15,ENE,76,3.0,5.0,76,0.00,,---,0.00,VWS V14.01,2013-03-17 14:54:00,
2013-03-17 09:59:00,31.2,24.5,30.15,ENE,71,2.0,2.0,76,0.00,,---,0.00,VWS V14.01,2013-03-17 14:59:00,
2013-03-17 10:00:00,31.2,24.5,30.15,ENE,71,2.0,5.0,76,0.00,,---,0.00,VWS V14.01,2013-03-17 15:00:00,
2013-03-17 10:04:00,31.4,25.0,30.15,SE,129,0.0,7.0,77,0.00,,---,0.00,VWS V14.01,2013-03-17 15:04:00,
2013-03-17 10:09:00,31.6,24.9,30.15,NE,40,1.0,2.0,76,0.00,,---,0.00,VWS V14.01,2013-03-17 15:09:00,
2013-03-17 10:10:00,31.6,25.2,30.15,ENE,60,1.0,7.0,77,0.00,,---,0.00,VWS V14.01,2013-03-17 15:10:00,
2013-03-17 10:14:00,31.8,25.1,30.15,NE,53,3.0,7.0,76,0.00,,---,0.00,VWS V14.01,2013-03-17 15:14:00,
2013-03-17 10:19:00,31.8,25.1,30.15,East,86,1.0,2.0,76,0.00,,---,0.00,VWS V14.01,2013-03-17 15:19:00,
2013-03-17 10:20:00,31.8,25.1,30.15,East,87,1.0,9.0,76,0.00,,---,0.00,VWS V14.01,2013-03-17 15:20:00,
2013-03-17 10:24:00,31.8,25.1,30.15,ESE,123,1.0,7.0,76,0.00,,---,0.00,VWS V14.01,2013-03-17 15:24:00,
2013-03-17 10:29:00,31.9,25.2,30.15,ESE,121,2.0,7.0,76,0.00,,---,0.00,VWS V14.01,2013-03-17 15:29:00,
2013-03-17 10:30:00,31.9,25.2,30.15,East,94,2.0,7.0,76,0.00,,---,0.00,VWS V14.01,2013-03-17 15:30:00,
2013-03-17 10:34:00,32.0,25.3,30.15,East,89,4.0,7.0,76,0.00,,---,0.00,VWS V14.01,2013-03-17 15:34:00,
2013-03-17 10:39:00,32.1,25.4,30.15,ENE,72,1.0,4.0,76,0.00,,---,0.00,VWS V14.01,2013-03-17 15:39:00,
2013-03-17 10:40:00,32.1,25.1,30.15,East,83,3.0,7.0,75,0.00,,---,0.00,VWS V14.01,2013-03-17 15:40:00,
2013-03-17 10:44:00,32.3,25.6,30.14,NE,45,3.0,6.0,76,0.00,,---,0.00,VWS V14.01,2013-03-17 15:44:00,
2013-03-17 10:49:00,32.5,25.8,30.14,SSE,154,2.0,5.0,76,0.00,,---,0.00,VWS V14.01,2013-03-17 15:49:00,
2013-03-17 10:50:00,32.4,25.7,30.14,ESE,121,0.0,6.0,76,0.00,,---,0.00,VWS V14.01,2013-03-17 15:50:00,
2013-03-17 10:54:00,32.8,26.1,30.14,SE,128,2.0,5.0,76,0.00,,---,0.00,VWS V14.01,2013-03-17 15:54:00,
2013-03-17 10:59:00,32.9,25.9,30.13,SE,129,1.0,2.0,75,0.00,,---,0.00,VWS V14.01,2013-03-17 15:59:00,
2013-03-17 11:00:00,32.9,25.9,30.13,SE,136,2.0,6.0,75,0.00,,---,0.00,VWS V14.01,2013-03-17 16:00:00,
2013-03-17 11:04:00,33.1,26.0,30.13,ENE,72,1.0,7.0,75,0.00,,---,0.00,VWS V14.01,2013-03-17 16:04:00,
2013-03-17 11:09:00,33.2,25.8,30.13,SE,126,2.0,2.0,74,0.00,,---,0.00,VWS V14.01,2013-03-17 16:09:00,
2013-03-17 11:10:00,33.2,25.8,30.13,ESE,108,1.0,10.0,74,0.00,,---,0.00,VWS V14.01,2013-03-17 16:10:00,
2013-03-17 11:14:00,33.6,26.5,30.13,East,101,2.0,4.0,75,0.00,,---,0.00,VWS V14.01,2013-03-17 16:14:00,
2013-03-17 11:19:00,34.1,26.7,30.12,ENE,77,1.0,4.0,74,0.00,,---,0.00,VWS V14.01,2013-03-17 16:19:00,
2013-03-17 11:20:00,34.0,26.9,30.13,SE,130,1.0,5.0,75,0.00,,---,0.00,VWS V14.01,2013-03-17 16:20:00,
2013-03-17 11:24:00,34.6,26.9,30.12,East,98,4.0,5.0,73,0.00,,---,0.00,VWS V14.01,2013-03-17 16:24:00,
2013-03-17 11:29:00,35.0,27.2,30.12,ESE,105,5.0,6.0,73,0.00,,---,0.00,VWS V14.01,2013-03-17 16:29:00,
2013-03-17 11:30:00,34.9,27.1,30.12,SSE,163,6.0,7.0,73,0.00,,---,0.00,VWS V14.01,2013-03-17 16:30:00,
2013-03-17 11:34:00,35.2,27.1,30.12,East,97,2.0,7.0,72,0.00,,---,0.00,VWS V14.01,2013-03-17 16:34:00,
2013-03-17 11:39:00,35.3,26.9,30.12,ENE,62,5.0,6.0,71,0.00,,---,0.00,VWS V14.01,2013-03-17 16:39:00,
2013-03-17 11:40:00,35.3,26.9,30.12,NE,54,2.0,7.0,71,0.00,,---,0.00,VWS V14.01,2013-03-17 16:40:00,
2013-03-17 11:44:00,35.5,27.4,30.12,ENE,58,0.0,6.0,72,0.00,,---,0.00,VWS V14.01,2013-03-17 16:44:00,
2013-03-17 11:49:00,35.7,27.2,30.11,SE,141,5.0,6.0,71,0.00,,---,0.00,VWS V14.01,2013-03-17 16:49:00,
2013-03-17 11:50:00,35.7,26.9,30.12,WSW,258,4.0,9.0,70,0.00,,---,0.00,VWS V14.01,2013-03-17 16:50:00,
2013-03-17 11:54:00,35.9,27.4,30.11,ENE,67,4.0,6.0,71,0.00,,---,0.00,VWS V14.01,2013-03-17 16:54:00,
2013-03-17 11:59:00,36.2,27.7,30.11,ENE,71,2.0,4.0,71,0.00,,---,0.00,VWS V14.01,2013-03-17 16:59:00,
2013-03-17 12:00:00,36.1,27.6,30.11,ESE,113,2.0,8.0,71,0.00,,---,0.00,VWS V14.01,2013-03-17 17:00:00,
2013-03-17 12:04:00,36.5,27.7,30.10,SSW,210,1.0,7.0,70,0.00,,---,0.00,VWS V14.01,2013-03-17 17:04:00,
2013-03-17 12:09:00,36.8,27.6,30.10,ESE,111,2.0,4.0,69,0.00,,---,0.00,VWS V14.01,2013-03-17 17:09:00,
2013-03-17 12:10:00,36.7,27.9,30.10,ESE,111,2.0,7.0,70,0.00,,---,0.00,VWS V14.01,2013-03-17 17:10:00,
2013-03-17 12:14:00,37.1,27.9,30.09,NNE,26,2.0,7.0,69,0.00,,---,0.00,VWS V14.01,2013-03-17 17:14:00,
2013-03-17 12:19:00,37.3,28.1,30.09,ENE,69,4.0,4.0,69,0.00,,---,0.00,VWS V14.01,2013-03-17 17:19:00,
2013-03-17 12:20:00,37.3,28.1,30.09,East,81,2.0,7.0,69,0.00,,---,0.00,VWS V14.01,2013-03-17 17:20:00,
2013-03-17 12:24:00,37.3,28.1,30.10,NNE,26,1.0,7.0,69,0.00,,---,0.00,VWS V14.01,2013-03-17 17:24:00,
2013-03-17 12:29:00,37.6,28.4,30.09,East,92,0.0,6.0,69,0.00,,---,0.00,VWS V14.01,2013-03-17 17:29:00,
2013-03-17 12:30:00,37.4,28.2,30.09,ESE,121,6.0,9.0,69,0.00,,---,0.00,VWS V14.01,2013-03-17 17:30:00,
2013-03-17 12:34:00,37.8,28.2,30.09,East,97,2.0,8.0,68,0.00,,---,0.00,VWS V14.01,2013-03-17 17:34:00,
2013-03-17 12:39:00,38.0,28.4,30.08,NE,40,5.0,6.0,68,0.00,,---,0.00,VWS V14.01,2013-03-17 17:39:00,
2013-03-17 12:40:00,37.9,28.6,30.08,SE,140,0.0,10.0,69,0.00,,---,0.00,VWS V14.01,2013-03-17 17:40:00,
2013-03-17 12:44:00,38.7,29.1,30.08,ENE,76,5.0,6.0,68,0.00,,---,0.00,VWS V14.01,2013-03-17 17:44:00,
2013-03-17 12:49:00,39.2,29.2,30.08,East,96,2.0,5.0,67,0.00,,---,0.00,VWS V14.01,2013-03-17 17:49:00,
2013-03-17 12:50:00,39.1,28.7,30.08,East,98,1.0,8.0,66,0.00,,---,0.00,VWS V14.01,2013-03-17 17:50:00,
2013-03-17 12:54:00,39.3,28.9,30.07,SE,125,1.0,7.0,66,0.00,,---,0.00,VWS V14.01,2013-03-17 17:54:00,
2013-03-17 12:59:00,39.6,29.2,30.07,SSE,155,1.0,4.0,66,0.00,,---,0.00,VWS V14.01,2013-03-17 17:59:00,
2013-03-17 13:00:00,39.5,29.5,30.07,ESE,105,4.0,7.0,67,0.00,,---,0.00,VWS V14.01,2013-03-17 18:00:00,
2013-03-17 13:04:00,39.8,29.0,30.07,SE,144,1.0,8.0,65,0.00,,---,0.00,VWS V14.01,2013-03-17 18:04:00,
2013-03-17 13:09:00,40.0,29.6,30.07,ESE,120,0.0,4.0,66,0.00,,---,0.00,VWS V14.01,2013-03-17 18:09:00,
2013-03-17 13:10:00,39.9,29.5,30.07,East,93,1.0,13.0,66,0.00,,---,0.00,VWS V14.01,2013-03-17 18:10:00,
2013-03-17 13:14:00,40.3,29.5,30.06,WSW,249,4.0,10.0,65,0.00,,---,0.00,VWS V14.01,2013-03-17 18:14:00,
2013-03-17 13:19:00,40.4,29.6,30.06,SSE,147,2.0,11.0,65,0.00,,---,0.00,VWS V14.01,2013-03-17 18:19:00,
2013-03-17 13:20:00,40.3,29.5,30.06,SE,142,4.0,10.0,65,0.00,,---,0.00,VWS V14.01,2013-03-17 18:20:00,
2013-03-17 13:24:00,40.7,29.9,30.05,NE,38,8.0,11.0,65,0.00,,---,0.00,VWS V14.01,2013-03-17 18:24:00,
2013-03-17 13:29:00,41.1,30.2,30.05,ESE,104,4.0,5.0,65,0.00,,---,0.00,VWS V14.01,2013-03-17 18:29:00,
2013-03-17 13:30:00,40.9,30.1,30.05,South,172,1.0,11.0,65,0.00,,---,0.00,VWS V14.01,2013-03-17 18:30:00,
2013-03-17 13:34:00,41.8,30.5,30.05,WSW,254,2.0,10.0,64,0.00,,---,0.00,VWS V14.01,2013-03-17 18:34:00,
2013-03-17 13:39:00,42.3,30.6,30.04,NNE,30,2.0,5.0,63,0.00,,---,0.00,VWS V14.01,2013-03-17 18:39:00,
2013-03-17 13:40:00,42.2,30.5,30.04,ENE,68,3.0,10.0,63,0.00,,---,0.00,VWS V14.01,2013-03-17 18:40:00,
2013-03-17 13:45:00,42.3,30.6,30.03,SSE,163,1.0,8.0,63,0.00,,---,0.00,VWS V14.01,2013-03-17 18:45:00,
2013-03-17 13:50:00,42.4,30.7,30.03,ENE,69,0.0,5.0,63,0.00,,---,0.00,VWS V14.01,2013-03-17 18:50:00,
2013-03-17 13:55:00,42.3,30.6,30.02,ENE,67,5.0,8.0,63,0.00,,---,0.00,VWS V14.01,2013-03-17 18:55:00,
2013-03-17 14:00:00,41.8,30.1,30.02,East,88,7.0,7.0,63,0.00,,---,0.00,VWS V14.01,2013-03-17 19:00:00,
2013-03-17 14:05:00,41.8,30.9,30.02,ESE,119,2.0,7.0,65,0.00,,---,0.00,VWS V14.01,2013-03-17 19:05:00,
2013-03-17 14:10:00,42.4,30.7,30.01,North,360,3.0,6.0,63,0.00,,---,0.00,VWS V14.01,2013-03-17 19:10:00,
2013-03-17 14:15:00,42.5,30.8,30.01,ESE,109,6.0,6.0,63,0.00,,---,0.00,VWS V14.01,2013-03-17 19:15:00,
2013-03-17 14:20:00,42.1,30.4,30.00,SE,138,2.0,11.0,63,0.00,,---,0.00,VWS V14.01,2013-03-17 19:20:00,
2013-03-17 14:25:00,41.9,30.6,30.00,NE,36,3.0,11.0,64,0.00,,---,0.00,VWS V14.01,2013-03-17 19:25:00,
2013-03-17 14:30:00,41.4,30.5,30.00,ENE,76,3.0,5.0,65,0.00,,---,0.00,VWS V14.01,2013-03-17 19:30:00,
2013-03-17 14:35:00,41.1,30.2,29.99,East,86,3.0,8.0,65,0.00,,---,0.00,VWS V14.01,2013-03-17 19:35:00,
2013-03-17 14:40:00,41.0,30.5,29.99,East,90,4.0,4.0,66,0.00,,---,0.00,VWS V14.01,2013-03-17 19:40:00,
2013-03-17 14:45:00,41.0,30.5,29.99,ENE,63,0.0,10.0,66,0.00,,---,0.00,VWS V14.01,2013-03-17 19:45:00,
2013-03-17 14:50:00,40.7,30.6,29.99,SE,138,2.0,4.0,67,0.00,,---,0.00,VWS V14.01,2013-03-17 19:50:00,
2013-03-17 14:55:00,40.4,30.3,29.99,ESE,108,1.0,10.0,67,0.00,,---,0.00,VWS V14.01,2013-03-17 19:55:00,
2013-03-17 15:00:00,40.0,29.9,29.98,ENE,71,2.0,8.0,67,0.00,,---,0.00,VWS V14.01,2013-03-17 20:00:00,
2013-03-17 15:05:00,39.9,30.2,29.98,ESE,121,0.0,10.0,68,0.00,,---,0.00,VWS V14.01,2013-03-17 20:05:00,
2013-03-17 15:10:00,39.9,30.6,29.98,NE,49,0.0,7.0,69,0.00,,---,0.00,VWS V14.01,2013-03-17 20:10:00,
2013-03-17 15:15:00,40.0,30.7,29.98,SE,139,1.0,7.0,69,0.00,,---,0.00,VWS V14.01,2013-03-17 20:15:00,
2013-03-17 15:20:00,40.1,30.8,29.97,SSE,163,2.0,3.0,69,0.00,,---,0.00,VWS V14.01,2013-03-17 20:20:00,
2013-03-17 15:25:00,39.9,30.6,29.97,East,91,0.0,6.0,69,0.00,,---,0.00,VWS V14.01,2013-03-17 20:25:00,
2013-03-17 15:30:00,39.7,30.4,29.97,SE,126,2.0,8.0,69,0.00,,---,0.00,VWS V14.01,2013-03-17 20:30:00,
2013-03-17 15:35:00,39.4,30.4,29.97,East,81,4.0,8.0,70,0.00,,---,0.00,VWS V14.01,2013-03-17 20:35:00,
2013-03-17 15:40:00,39.3,30.4,29.96,SE,140,1.0,4.0,70,0.00,,---,0.00,VWS V14.01,2013-03-17 20:40:00,
2013-03-17 15:45:00,39.4,30.8,29.96,SSE,156,1.0,6.0,71,0.00,,---,0.00,VWS V14.01,2013-03-17 20:45:00,
2013-03-17 15:50:00,39.5,30.5,29.96,East,80,2.0,6.0,70,0.00,,---,0.00,VWS V14.01,2013-03-17 20:50:00,
2013-03-17 15:55:00,39.5,30.5,29.96,ENE,77,0.0,6.0,70,0.00,,---,0.00,VWS V14.01,2013-03-17 20:55:00,
2013-03-17 16:00:00,39.2,30.2,29.95,ENE,72,5.0,7.0,70,0.00,,---,0.00,VWS V14.01,2013-03-17 21:00:00,
2013-03-17 16:05:00,38.9,30.3,29.96,East,82,5.0,7.0,71,0.00,,---,0.00,VWS V14.01,2013-03-17 21:05:00,
2013-03-17 16:10:00,38.7,30.1,29.95,East,90,5.0,6.0,71,0.00,,---,0.00,VWS V14.01,2013-03-17 21:10:00,
2013-03-17 16:15:00,38.7,30.1,29.95,SSE,147,0.0,7.0,71,0.00,,---,0.00,VWS V14.01,2013-03-17 21:15:00,
2013-03-17 16:20:00,38.8,30.6,29.95,East,96,0.0,4.0,72,0.00,,---,0.00,VWS V14.01,2013-03-17 21:20:00,
2013-03-17 16:25:00,38.9,30.3,29.95,ESE,117,1.0,5.0,71,0.00,,---,0.00,VWS V14.01,2013-03-17 21:25:00,
2013-03-17 16:30:00,39.0,30.4,29.95,SE,125,4.0,4.0,71,0.00,,---,0.00,VWS V14.01,2013-03-17 21:30:00,
2013-03-17 16:35:00,39.0,30.4,29.95,SSE,165,1.0,6.0,71,0.00,,---,0.00,VWS V14.01,2013-03-17 21:35:00,
2013-03-17 16:40:00,38.9,30.3,29.95,ENE,74,1.0,6.0,71,0.00,,---,0.00,VWS V14.01,2013-03-17 21:40:00,
2013-03-17 16:45:00,38.8,30.2,29.94,SE,144,4.0,7.0,71,0.00,,---,0.00,VWS V14.01,2013-03-17 21:45:00,
2013-03-17 16:50:00,38.8,30.6,29.94,SE,139,4.0,5.0,72,0.00,,---,0.00,VWS V14.01,2013-03-17 21:50:00,
2013-03-17 16:55:00,38.8,30.6,29.94,SE,126,1.0,10.0,72,0.00,,---,0.00,VWS V14.01,2013-03-17 21:55:00,
2013-03-17 17:00:00,38.9,30.3,29.94,ESE,121,2.0,7.0,71,0.00,,---,0.00,VWS V14.01,2013-03-17 22:00:00,
2013-03-17 17:05:00,38.7,30.1,29.94,ESE,122,0.0,11.0,71,0.00,,---,0.00,VWS V14.01,2013-03-17 22:05:00,
2013-03-17 17:10:00,38.7,30.5,29.93,ENE,74,4.0,4.0,72,0.00,,---,0.00,VWS V14.01,2013-03-17 22:10:00,
2013-03-17 17:15:00,38.7,30.5,29.93,ESE,108,0.0,8.0,72,0.00,,---,0.00,VWS V14.01,2013-03-17 22:15:00,
2013-03-17 17:20:00,38.7,30.5,29.93,East,81,3.0,7.0,72,0.00,,---,0.00,VWS V14.01,2013-03-17 22:20:00,
2013-03-17 17:25:00,38.7,30.5,29.93,SE,144,0.0,7.0,72,0.00,,---,0.00,VWS V14.01,2013-03-17 22:25:00,
2013-03-17 17:30:00,38.6,30.4,29.92,ESE,105,1.0,4.0,72,0.00,,---,0.00,VWS V14.01,2013-03-17 22:30:00,
2013-03-17 17:35:00,38.6,30.4,29.92,ESE,102,2.0,11.0,72,0.00,,---,0.00,VWS V14.01,2013-03-17 22:35:00,
2013-03-17 17:40:00,38.6,30.4,29.92,NE,39,4.0,8.0,72,0.00,,---,0.00,VWS V14.01,2013-03-17 22:40:00,
2013-03-17 17:45:00,38.5,30.3,29.92,East,86,2.0,8.0,72,0.00,,---,0.00,VWS V14.01,2013-03-17 22:45:00,
2013-03-17 17:50:00,38.4,30.5,29.92,SSE,153,0.0,5.0,73,0.00,,---,0.00,VWS V14.01,2013-03-17 22:50:00,
2013-03-17 17:55:00,38.3,30.4,29.92,SSE,159,1.0,7.0,73,0.00,,---,0.00,VWS V14.01,2013-03-17 22:55:00,
2013-03-17 18:00:00,38.3,30.4,29.92,SE,125,0.0,4.0,73,0.00,,---,0.00,VWS V14.01,2013-03-17 23:00:00,
2013-03-17 18:05:00,38.2,30.7,29.91,East,90,2.0,6.0,74,0.00,,---,0.00,VWS V14.01,2013-03-17 23:05:00,
2013-03-17 18:10:00,38.0,30.5,29.91,SE,144,1.0,5.0,74,0.00,,---,0.00,VWS V14.01,2013-03-17 23:10:00,
2013-03-17 18:15:00,38.0,30.8,29.90,SE,135,2.0,6.0,75,0.00,,---,0.00,VWS V14.01,2013-03-17 23:15:00,
2013-03-17 18:20:00,38.0,30.8,29.91,East,82,1.0,7.0,75,0.00,,---,0.00,VWS V14.01,2013-03-17 23:20:00,
2013-03-17 18:26:00,38.0,30.8,29.91,SE,144,4.0,7.0,75,0.00,,---,0.00,VWS V14.01,2013-03-17 23:26:00,
2013-03-17 18:30:00,38.0,31.1,29.91,SSW,205,4.0,7.0,76,0.00,,---,0.00,VWS V14.01,2013-03-17 23:30:00,
2013-03-17 18:31:00,37.9,31.0,29.91,SE,145,2.0,8.0,76,0.00,,---,0.00,VWS V14.01,2013-03-17 23:31:00,
2013-03-17 18:36:00,37.9,31.0,29.91,South,169,2.0,8.0,76,0.00,,---,0.00,VWS V14.01,2013-03-17 23:36:00,
2013-03-17 18:40:00,37.8,30.9,29.91,SE,134,2.0,8.0,76,0.00,,---,0.00,VWS V14.01,2013-03-17 23:40:00,
2013-03-17 18:41:00,37.8,31.2,29.90,ESE,108,2.0,6.0,77,0.00,,---,0.00,VWS V14.01,2013-03-17 23:41:00,
2013-03-17 18:46:00,37.7,31.1,29.90,ESE,109,1.0,8.0,77,0.00,,---,0.00,VWS V14.01,2013-03-17 23:46:00,
2013-03-17 18:50:00,37.7,31.1,29.91,East,83,2.0,8.0,77,0.00,,---,0.00,VWS V14.01,2013-03-17 23:50:00,
2013-03-17 18:51:00,37.7,31.1,29.91,ENE,74,2.0,6.0,77,0.00,,---,0.00,VWS V14.01,2013-03-17 23:51:00,
2013-03-17 18:56:00,37.5,31.0,29.90,East,90,4.0,7.0,77,0.00,,---,0.00,VWS V14.01,2013-03-17 23:56:00,
2013-03-17 19:00:00,37.5,31.3,29.90,East,81,3.0,7.0,78,0.00,,---,0.00,VWS V14.01,2013-03-18 00:00:00,
2013-03-17 19:01:00,37.4,31.2,29.90,SE,137,1.0,5.0,78,0.00,,---,0.00,VWS V14.01,2013-03-18 00:01:00,
2013-03-17 19:06:00,37.3,31.1,29.90,East,93,5.0,7.0,78,0.00,,---,0.00,VWS V14.01,2013-03-18 00:06:00,
2013-03-17 19:10:00,37.3,31.1,29.90,East,101,0.0,10.0,78,0.00,,---,0.00,VWS V14.01,2013-03-18 00:10:00,
2013-03-17 19:11:00,37.3,31.1,29.89,SSE,153,2.0,7.0,78,0.00,,---,0.00,VWS V14.01,2013-03-18 00:11:00,
2013-03-17 19:16:00,37.1,31.2,29.89,East,97,1.0,7.0,79,0.00,,---,0.00,VWS V14.01,2013-03-18 00:16:00,
2013-03-17 19:20:00,37.1,31.2,29.89,SE,127,2.0,7.0,79,0.00,,---,0.00,VWS V14.01,2013-03-18 00:20:00,
2013-03-17 19:21:00,37.1,31.2,29.89,SE,137,4.0,8.0,79,0.00,,---,0.00,VWS V14.01,2013-03-18 00:21:00,
2013-03-17 19:26:00,37.0,31.1,29.89,SE,143,2.0,8.0,79,0.00,,---,0.00,VWS V14.01,2013-03-18 00:26:00,
2013-03-17 19:30:00,37.0,31.1,29.89,ESE,108,2.0,8.0,79,0.00,,---,0.00,VWS V14.01,2013-03-18 00:30:00,
2013-03-17 19:31:00,37.0,31.1,29.89,ENE,78,1.0,7.0,79,0.00,,---,0.00,VWS V14.01,2013-03-18 00:31:00,
2013-03-17 19:36:00,36.9,31.0,29.89,East,99,4.0,11.0,79,0.00,,---,0.00,VWS V14.01,2013-03-18 00:36:00,
2013-03-17 19:40:00,36.8,30.9,29.88,SE,145,5.0,11.0,79,0.00,,---,0.00,VWS V14.01,2013-03-18 00:40:00,
2013-03-17 19:41:00,36.7,30.8,29.88,ESE,121,7.0,10.0,79,0.00,,---,0.00,VWS V14.01,2013-03-18 00:41:00,
2013-03-17 19:46:00,36.6,30.7,29.88,East,79,11.0,11.0,79,0.00,,---,0.00,VWS V14.01,2013-03-18 00:46:00,
2013-03-17 19:50:00,36.5,30.6,29.89,ENE,72,3.0,11.0,79,0.00,,---,0.00,VWS V14.01,2013-03-18 00:50:00,
2013-03-17 19:51:00,36.5,30.9,29.89,ESE,123,1.0,8.0,80,0.00,,---,0.00,VWS V14.01,2013-03-18 00:51:00,
2013-03-17 19:56:00,36.4,30.8,29.89,East,87,3.0,10.0,80,0.00,,---,0.00,VWS V14.01,2013-03-18 00:56:00,
2013-03-17 20:00:00,36.4,30.8,29.89,ESE,109,7.0,10.0,80,0.00,,---,0.00,VWS V14.01,2013-03-18 01:00:00,
2013-03-17 20:01:00,36.3,30.7,29.89,NE,49,3.0,11.0,80,0.00,,---,0.00,VWS V14.01,2013-03-18 01:01:00,
2013-03-17 20:07:00,36.2,30.6,29.89,East,89,2.0,11.0,80,0.00,,---,0.00,VWS V14.01,2013-03-18 01:07:00,
2013-03-17 20:10:00,36.2,30.6,29.90,ENE,71,3.0,11.0,80,0.00,,---,0.00,VWS V14.01,2013-03-18 01:10:00,
2013-03-17 20:12:00,36.1,30.5,29.89,SE,140,1.0,5.0,80,0.00,,---,0.00,VWS V14.01,2013-03-18 01:12:00,
2013-03-17 20:17:00,36.1,30.5,29.89,ENE,66,3.0,8.0,80,0.00,,---,0.00,VWS V14.01,2013-03-18 01:17:00,
2013-03-17 20:20:00,36.1,30.5,29.90,ENE,60,3.0,8.0,80,0.00,,---,0.00,VWS V14.01,2013-03-18 01:20:00,
2013-03-17 20:22:00,36.1,30.5,29.90,East,94,4.0,8.0,80,0.00,,---,0.00,VWS V14.01,2013-03-18 01:22:00,
2013-03-17 20:27:00,36.0,30.4,29.89,South,180,5.0,8.0,80,0.00,,---,0.00,VWS V14.01,2013-03-18 01:27:00,
2013-03-17 20:30:00,36.0,30.4,29.89,East,79,3.0,8.0,80,0.00,,---,0.00,VWS V14.01,2013-03-18 01:30:00,
2013-03-17 20:32:00,35.9,30.3,29.89,East,90,4.0,10.0,80,0.00,,---,0.00,VWS V14.01,2013-03-18 01:32:00,
2013-03-17 20:37:00,35.9,30.3,29.88,East,96,2.0,10.0,80,0.00,,---,0.00,VWS V14.01,2013-03-18 01:37:00,
2013-03-17 20:40:00,35.9,30.3,29.88,SE,132,7.0,10.0,80,0.00,,---,0.00,VWS V14.01,2013-03-18 01:40:00,
2013-03-17 20:42:00,35.8,30.5,29.88,East,83,3.0,11.0,81,0.00,,---,0.00,VWS V14.01,2013-03-18 01:42:00,
2013-03-17 20:47:00,35.7,30.5,29.88,ESE,116,6.0,11.0,81,0.00,,---,0.00,VWS V14.01,2013-03-18 01:47:00,
2013-03-17 20:50:00,35.7,30.5,29.88,ENE,78,2.0,11.0,81,0.00,,---,0.00,VWS V14.01,2013-03-18 01:50:00,
2013-03-17 20:52:00,35.7,30.5,29.89,SE,129,2.0,4.0,81,0.00,,---,0.00,VWS V14.01,2013-03-18 01:52:00,
2013-03-17 20:57:00,35.6,30.4,29.89,ENE,74,3.0,11.0,81,0.00,,---,0.00,VWS V14.01,2013-03-18 01:57:00,
2013-03-17 21:00:00,35.6,30.4,29.89,ESE,114,1.0,11.0,81,0.00,,---,0.00,VWS V14.01,2013-03-18 02:00:00,
2013-03-17 21:02:00,35.6,30.7,29.89,SSE,148,2.0,7.0,82,0.00,,---,0.00,VWS V14.01,2013-03-18 02:02:00,
2013-03-17 21:07:00,35.6,30.7,29.89,ENE,60,1.0,9.0,82,0.00,,---,0.00,VWS V14.01,2013-03-18 02:07:00,
2013-03-17 21:10:00,35.6,30.7,29.90,SSE,163,0.0,9.0,82,0.00,,---,0.00,VWS V14.01,2013-03-18 02:10:00,
2013-03-17 21:12:00,35.5,30.6,29.90,East,82,2.0,8.0,82,0.00,,---,0.00,VWS V14.01,2013-03-18 02:12:00,
2013-03-17 21:17:00,35.5,30.6,29.90,ENE,77,2.0,8.0,82,0.00,,---,0.00,VWS V14.01,2013-03-18 02:17:00,
2013-03-17 21:20:00,35.4,30.5,29.90,SE,140,0.0,8.0,82,0.00,,---,0.00,VWS V14.01,2013-03-18 02:20:00,
2013-03-17 21:22:00,35.4,30.8,29.90,NE,56,5.0,9.0,83,0.00,,---,0.00,VWS V14.01,2013-03-18 02:22:00,
2013-03-17 21:27:00,35.3,30.7,29.90,ESE,115,0.0,9.0,83,0.00,,---,0.00,VWS V14.01,2013-03-18 02:27:00,
2013-03-17 21:30:00,35.4,30.8,29.90,ESE,115,0.0,9.0,83,0.00,,---,0.00,VWS V14.01,2013-03-18 02:30:00,
2013-03-17 21:32:00,35.4,30.8,29.90,East,80,1.0,6.0,83,0.00,,---,0.00,VWS V14.01,2013-03-18 02:32:00,
2013-03-17 21:37:00,35.3,30.7,29.90,East,100,0.0,7.0,83,0.00,,---,0.00,VWS V14.01,2013-03-18 02:37:00,
2013-03-17 21:40:00,35.3,30.7,29.90,ESE,108,4.0,7.0,83,0.00,,---,0.00,VWS V14.01,2013-03-18 02:40:00,
2013-03-17 21:42:00,35.3,31.0,29.90,SE,136,0.0,8.0,84,0.00,,---,0.00,VWS V14.01,2013-03-18 02:42:00,
2013-03-17 21:47:00,35.2,30.9,29.90,ESE,117,2.0,8.0,84,0.00,,---,0.00,VWS V14.01,2013-03-18 02:47:00,
2013-03-17 21:50:00,35.2,30.9,29.89,ESE,109,2.0,8.0,84,0.00,,---,0.00,VWS V14.01,2013-03-18 02:50:00,
2013-03-17 21:52:00,35.2,30.9,29.89,ESE,119,0.0,4.0,84,0.00,,---,0.00,VWS V14.01,2013-03-18 02:52:00,
2013-03-17 21:57:00,35.2,30.9,29.88,SE,125,1.0,6.0,84,0.00,,---,0.00,VWS V14.01,2013-03-18 02:57:00,
2013-03-17 22:00:00,35.2,30.9,29.88,ESE,104,4.0,6.0,84,0.00,,---,0.00,VWS V14.01,2013-03-18 03:00:00,
2013-03-17 22:02:00,35.2,30.9,29.87,ENE,68,5.0,8.0,84,0.00,,---,0.00,VWS V14.01,2013-03-18 03:02:00,
2013-03-17 22:07:00,35.1,30.8,29.87,ENE,78,3.0,8.0,84,0.00,,---,0.00,VWS V14.01,2013-03-18 03:07:00,
2013-03-17 22:10:00,35.0,30.7,29.87,ESE,107,1.0,8.0,84,0.00,,---,0.00,VWS V14.01,2013-03-18 03:10:00,
2013-03-17 22:12:00,35.0,31.0,29.88,East,79,4.0,6.0,85,0.00,,---,0.00,VWS V14.01,2013-03-18 03:12:00,
2013-03-17 22:17:00,34.9,30.9,29.89,ENE,74,0.0,6.0,85,0.00,,---,0.00,VWS V14.01,2013-03-18 03:17:00,
2013-03-17 22:20:00,35.0,31.0,29.89,East,84,0.0,6.0,85,0.00,,---,0.00,VWS V14.01,2013-03-18 03:20:00,
2013-03-17 22:22:00,34.9,30.9,29.89,East,87,0.0,11.0,85,0.00,,---,0.00,VWS V14.01,2013-03-18 03:22:00,
2013-03-17 22:27:00,34.9,30.9,29.89,ENE,72,1.0,11.0,85,0.00,,---,0.00,VWS V14.01,2013-03-18 03:27:00,
2013-03-17 22:30:00,34.8,30.8,29.89,NE,40,2.0,11.0,85,0.00,,---,0.00,VWS V14.01,2013-03-18 03:30:00,
2013-03-17 22:32:00,34.8,30.8,29.89,East,88,0.0,8.0,85,0.00,,---,0.00,VWS V14.01,2013-03-18 03:32:00,
2013-03-17 22:37:00,34.8,30.8,29.88,SE,146,1.0,8.0,85,0.00,,---,0.00,VWS V14.01,2013-03-18 03:37:00,
2013-03-17 22:40:00,34.8,31.0,29.88,East,81,6.0,8.0,86,0.00,,---,0.00,VWS V14.01,2013-03-18 03:40:00,
2013-03-17 22:42:00,34.8,31.0,29.88,East,101,1.0,6.0,86,0.00,,---,0.00,VWS V14.01,2013-03-18 03:42:00,
2013-03-17 22:47:00,34.8,31.0,29.88,SE,132,0.0,6.0,86,0.00,,---,0.00,VWS V14.01,2013-03-18 03:47:00,
2013-03-17 22:50:00,34.7,31.0,29.88,ESE,105,1.0,6.0,86,0.00,,---,0.00,VWS V14.01,2013-03-18 03:50:00,
2013-03-17 22:52:00,34.8,31.0,29.88,ENE,76,1.0,6.0,86,0.00,,---,0.00,VWS V14.01,2013-03-18 03:52:00,
2013-03-17 22:57:00,34.8,31.0,29.88,South,169,1.0,6.0,86,0.00,,---,0.00,VWS V14.01,2013-03-18 03:57:00,
2013-03-17 23:00:00,34.7,31.0,29.88,SE,125,5.0,5.0,86,0.00,,---,0.00,VWS V14.01,2013-03-18 04:00:00,
2013-03-17 23:05:00,34.7,31.0,29.88,East,86,1.0,6.0,86,0.00,,---,0.00,VWS V14.01,2013-03-18 04:05:00,
2013-03-17 23:10:00,34.6,31.1,29.89,SE,134,1.0,3.0,87,0.00,,---,0.00,VWS V14.01,2013-03-18 04:10:00,
2013-03-17 23:15:00,34.7,31.2,29.89,ENE,74,1.0,6.0,87,0.00,,---,0.00,VWS V14.01,2013-03-18 04:15:00,
2013-03-17 23:20:00,34.7,31.2,29.89,East,88,0.0,2.0,87,0.00,,---,0.00,VWS V14.01,2013-03-18 04:20:00,
2013-03-17 23:25:00,34.7,31.2,29.89,East,88,0.0,3.0,87,0.00,,---,0.00,VWS V14.01,2013-03-18 04:25:00,
2013-03-17 23:30:00,34.7,31.2,29.88,ENE,63,3.0,3.0,87,0.00,,---,0.00,VWS V14.01,2013-03-18 04:30:00,
2013-03-17 23:35:00,34.8,31.3,29.88,East,90,0.0,5.0,87,0.00,,---,0.00,VWS V14.01,2013-03-18 04:35:00,
2013-03-17 23:40:00,34.8,31.3,29.88,East,89,2.0,4.0,87,0.00,,---,0.00,VWS V14.01,2013-03-18 04:40:00,
2013-03-17 23:45:00,34.8,31.3,29.88,SE,144,1.0,4.0,87,0.00,,---,0.00,VWS V14.01,2013-03-18 04:45:00,
2013-03-17 23:50:00,34.8,31.3,29.89,East,96,0.0,1.0,87,0.00,,---,0.00,VWS V14.01,2013-03-18 04:50:00,
2013-03-17 23:55:00,34.8,31.3,29.90,East,96,1.0,4.0,87,0.00,,---,0.00,VWS V14.01,2013-03-18 04:55:00,